Regional Weather Roundup
Issued by NWS Wakefield, VA

Home | Current Version | Previous Version | Graphics & Text | Print | Product List | Glossary On
Versions: 1 2 3 4 5 6 7 8 9 10 11 12 13 14 15 16 17 18 19 20 21 22 23 24 25 26 27
000
ASUS41 KAKQ 241110
RWRAKQ

REGIONAL WEATHER ROUNDUP
NATIONAL WEATHER SERVICE WAKEFIELD VA
700 AM EDT FRI OCT 24 2014

Note: "fair" indicates few or no clouds below 12,000 feet with no
significant weather and/or obstructions to visibility. * = Denotes
station may not report precipitation (e.g., rain,snow,etc.),
thunder or fog.

VAZ042-051-052>054-056-241200-
NORTHERN VIRGINIA

CITY           SKY/WX    TMP DP  RH WIND       PRES   REMARKS
WASH NATIONAL  PTCLDY    56  42  59 NW9       29.96S
DULLES         PTCLDY    50  42  74 NW7       29.98R
FORT BELVOIR   CLEAR     53  43  67 W12       29.97R
QUANTICO       PTCLDY    54  42  64 NW13      29.98S
FREDERICKSBRG* CLEAR     53  44  70 NW6       29.97S
STAFFORD*      CLEAR     51  41  69 NW6       30.02R
WARRENTON      CLEAR     53  47  82 NW3       29.98S
CULPEPER*      CLEAR     54  43  66 NW6       30.00S
MANASSAS*      CLEAR     54  45  71 NW10G17   29.98R
LEESBURG*      CLEAR     52  45  76 NW12      29.99R
WINCHESTER     CLEAR     50  37  62 NW10G16   30.02R
FRONT ROYAL*   MOSUNNY   50  41  71 N5        30.02R
LURAY*         MOSUNNY   52  43  71 S5        30.03R
$$

VAZ048-049-060>072-079>083-241200-
CENTRAL AND SOUTH CENTRAL VIRGINIA...AND NORTH CENTRAL NORTH CAROLINA

CITY           SKY/WX    TMP DP  RH WIND       PRES   REMARKS
RICHMOND       PTCLDY    50  42  74 W7        29.99R
CHESTERFIELD*    N/A    N/A N/A N/A MISG        N/A
PETERSBURG*    PTCLDY    46  40  80 W3        30.00S
HANOVER        CLEAR     47  42  83 SW5       30.01R
TAPPAHANNOCK*  CLEAR     49  40  71 W3        29.98R
CHARLOTTSVILLE PTCLDY    51  40  65 SW3       30.01R
ORANGE*        PTCLDY    43  41  93 CALM      30.01R FOG
LOUISA*        PTCLDY    43  39  87 CALM      29.99S
FARMVILLE*     PTCLDY    43  43 100 CALM      30.00R
CREWE*         MOSUNNY   46  40  80 NW6       30.01R
FORT PICKETT*  MOSUNNY   44  40  88 NW5       30.00S
LUNENBURG*     MOSUNNY   47  42  84 W3        30.02R
SOUTH HILL*    PTCLDY    48  43  81 W3        30.07R
LAWRENCEVILLE* MOSUNNY   43  41  94 CALM      30.01R
ROANOKE RAPIDS MOSUNNY   46  43  87 CALM      30.01R
RALEIGH        MOCLDY    44  40  85 CALM      30.02S
$$

VAZ088>098-241200-
SOUTHEAST VIRGINIA

CITY           SKY/WX    TMP DP  RH WIND       PRES   REMARKS
NORFOLK        PTCLDY    56  42  59 VRB7      29.96R
VIRGINIA BEACH MOCLDY    56  43  61 NW9       29.95R
NORFOLK NAVAL  MOCLDY    58  46  64 W9        29.97R
WEST POINT*    PTCLDY    53  43  69 NW5       29.99R
NEWPORT NEWS   PTCLDY    55  43  63 NW8       29.97R
LANGLEY AFB    PTCLDY    52  44  73 W10       29.97R
FORT EUSTIS    MOCLDY    54  45  70 NW10      29.96R
WILLIAMSBURG*  PTCLDY    52  46  82 NW10      29.99R
HR EXEC AP*    MOSUNNY   46  43  87 W5        29.99S
FRANKLIN*      PTCLDY    46  43  87 W7        29.99S
WAKEFIELD      MOCLDY    47  42  83 CALM      29.98S
$$

VAZ020-022-025-037-045-241200-
WEST CENTRAL AND SOUTHWEST VIRGINIA

CITY           SKY/WX    TMP DP  RH WIND       PRES   REMARKS
STAUNTON*      PTCLDY    37  33  86 CALM      30.06R
HOT SPRINGS VA MOCLDY    40  38  93 NW15      30.03S
LYNCHBURG      MOCLDY    42  39  89 CALM      30.04R
DANVILLE       CLEAR     44  39  82 SW5       30.04S
SOUTH BOSTON*  NOT AVBL
MARTINSVILLE   PTCLDY    38  38 100 CALM      30.07S
ROANOKE        MOCLDY    46  39  76 W5        30.10R
BLACKSBURG     MOCLDY    39  39 100 CALM      30.10S
DUBLIN*        MOCLDY    46  43  87 CALM      30.10S
MARION*        MOCLDY    37  35  94 W5        30.13R FOG
HILLSVILLE*    MOCLDY    40  38  92 NW3       30.08R
RICHLANDS*     FOG       39  37  93 SE5       30.10F VSB 1/2
WISE*          MOCLDY    41  41 100 CALM      30.12S
ABINGDON*      MOCLDY    39  39  97 CALM      30.12R
$$

MDZ021>025-VAZ099-100-241200-
SOUTHERN MARYLAND AND THE DELMARVA PENINSULA

CITY           SKY/WX    TMP DP  RH WIND       PRES   REMARKS
PATUXENT RIVER PTCLDY    53  42  66 NW10      29.93R
BAY BRIDGE APT   N/A     54  43  66 W12       29.92S
LEONARDTOWN    CLEAR     50  41  71 W6        29.95S
DOVER          CLOUDY    55  45  71 W8        29.84F
GEORGETOWN     MOCLDY    54  43  66 W5        29.89R
EASTON         PTCLDY    55  46  71 CALM      29.95R
CAMBRIDGE      CLEAR     55  43  62 NW12G18   29.90S
SALISBURY      PTCLDY    56  43  61 NW8       29.89R
OCEAN CITY     PTCLDY    52  45  77 NW6       29.88R
WALLOPS ISLAND CLEAR     53  45  74 NW7       29.91R
ACCOMACK*      CLEAR     55  45  67 NW13G18   29.91S
$$

NCZ012>017-030>032-241200-
EASTERN NORTH CAROLINA

CITY           SKY/WX    TMP DP  RH WIND       PRES   REMARKS
ELIZABETH CITY PTCLDY    50  43  77 W9        29.98R
AHOSKIE*       CLEAR     46  42  87 CALM      30.01R
EDENTON*       PTCLDY    50  45  82 NW6       29.99R
CURRITUCK*     PTCLDY    48  42  79 W7        29.97S
KILL DEVIL HLS PTCLDY    54  46  73 NW8       29.95R
MANTEO         PTCLDY    56  46  71 NW8G18    29.97R
CAPE HATTERAS  CLEAR     57  48  72 NW12G20   29.96R
TARBORO*       MOSUNNY   47  43  87 NW3       30.02R
GOLDSBORO      PTCLDY    47  46  97 NW3       30.00R
WASHINGTON     PTCLDY    46  43  88 N3        30.00S
GREENVILLE     PTCLDY    46  45  93 CALM      30.03R
NEW BERN       PTCLDY    50  44  80 CALM      30.01R
WILMINGTON     MOCLDY    48  45  89 NW5       30.02R
$$

VAZ048-241200-
ELSEWHERE

CITY           SKY/WX    TMP DP  RH WIND       PRES   REMARKS
HARRISBURG PA  MOCLDY    55  43  63 NW15      29.92R
BALTIMORE      PTCLDY    53  43  68 W9        29.92S
ANNAPOLIS      CLEAR     54  43  66 W7        29.92R
ANDREWS AFB    CLEAR     53  43  68 NW15      29.94S
WILMINGTON DE  CLOUDY    57  46  66 NW10      29.88R
PHILADELPHIA   MOCLDY    57  44  62 NW15      29.86R
WILDWOOD NJ*   CLOUDY    55  45  67 NW9G16    29.86S
ATLANTIC CITY  CLEAR     47  44  90 W7        29.83S
HENDERSON NC   MOCLDY    49  40  71 NW7       30.02S
GREENSBORO     PTCLDY    44  40  85 N5        30.03R
ROCKY MOUNT    PTCLDY    48  42  80 NW3       30.02R
FAYETTEVILLE   CLOUDY    50  42  74 N7        30.02S
CHARLOTTE      MOCLDY    43  41  93 N6        30.05S
$$

VAZ100-241200-
MARINE

STATION/POSITION TIME  TEMP    WIND        PRES    WAVE   SWELL
                       AIR SEA DIR/SP/G            HT/PER HT/PER
                 (UTC) (F)     (DEG/KT/KT) (MB)    (FT/S) (FT/S)
44066 TX TWR #4  1100   57 66  330/ 21/ 27 1006.6R
CAPE MAY NJ      1100   58 62  320/  8/ 17 1010.6S
LEWES DE         1100   55 58  300/ 12/ 14 1011.1R
15NM E FENWICK I 1100   59 64  300/ 19/ 25 1010.4R   6/ 7   2/ 9
OCEAN-CITY-INLET 1100   55 60  320/  7/  9 1011.1R
WACHAPREAGUE VA  1100   56 59  290/  2/  8 1012.8S
THOMAS POINT MD  1100   54 62  290/ 13/ 14 1014.2R
GOOSES REEF MD   1100   56     310/ 19/ 23 1013.4R
COVE POINT MD    1100   55     320/ 18/ 24 1013.0F
SOLOMONS ISLAND  1100      63                N/A
BISHOPS HEAD MD  1100   56 56  310/ 13/ 19 1012.6R
PINEY POINT MD   1100          330/ 23/ 25   N/A
POTOMAC MD       1100   58     330/ 19/ 23 1013.3R
CAMBRIDGE MD     1100   57 60  300/ 14/ 21 1012.5S
LEWISETTA VA     1100   57 59  330/ 11/ 16 1013.5F
RAPPAHANNOCK LGT 1100          310/ 21/ 25 1013.6S
STINGRAY PT      1100   57     310/ 17/ 21 1014.3R
YORK RVR RNG VA  1100   55     310/ 13/ 15 1014.0R
YORKTOWN VA      1100   55 64  280/ 14/ 18 1014.3R
JAMESTOWN VA     1100   55     310/ 14/ 17   N/A
DOMINION TERM VA 1100   55     300/ 15/ 17 1014.5R
KIPTOPEKE VA     1100      64  330/ 21/ 24   N/A
CHES BAY BRIDGE  1100   58 64  300/ 19/ 22 1013.6S
CHESAPEAKE LGHT  1000   59     330/ 22/ 24 1013.5R
WILLOUBY STN VA  1100   56     300/ 14/ 17 1013.3R
S CRANEY ISL VA  1100          250/  7/ 10 1014.5R
CAPE HENRY BUOY  1100      67                N/A     5/ 5
1ST LANDING BUOY 1100   60     320/ 21/ 25 1013.7R
CAPE CHARLES BUO 1100      66                N/A     4/ 8   2/ 8
64NM E OF VA BCH 1100   62 66  320/ 17/ 21 1011.9R   6/ 7
DUCK PIER NC     1100   54 66  310/ 14/ 18 1013.4S
44100 DUCK FRF   1100      68                N/A     5/ 8   2/11
44056 DUCK FRF   1100                        N/A     4/ 6
OREGON INLET NC  1100   57 64  300/ 11/ 14 1014.2S
HATTERAS NC      1100   59 64  330/ 17/ 20 1014.9R
DIAMOND SHLS NC  1100   61     320/ 19/ 21 1014.1R   4/ 5   2/ 8
CAPE LOOKOUT NC  1000   57     340/ 12/ 14 1015.0R
$$



USA.gov is the U.S. government's official web portal to all federal, state and local government web resources and services.